"Pseudo-MPEC" for C1CC4M5

Created 2026 Mar 17 18:35:05 UT using Find_Orb

Click here for an explanation of pseudo-MPECs

 
 Astrometry: 
     C1CC4M5*1C2026 02 24.31629509 59 10.021-02 28 24.74   ~2OAo 22.38GVNEOCPV00
     C1CC4M5 1C2026 02 24.32187509 59 09.496-02 28 24.92   ~2OAo 23.00GVNEOCPV00
     C1CC4M5 1C2026 02 24.32746209 59 08.992-02 28 25.32   ~2OAo 22.77GVNEOCPV00
     C1CC4M5 1C2026 02 24.42000409 59 00.600-02 28 34.20   ~2PJ5 22.70GVNEOCPV00
     C1CC4M5 1C2026 02 24.42120509 59 00.500-02 28 33.80   ~2PJ5       VNEOCPV00
     C1CC4M5 1C2026 02 24.42240309 59 00.300-02 28 34.30   ~2PJ5       VNEOCPV00
     C1CC4M5 1C2026 02 24.42360309 59 00.200-02 28 34.20   ~2PJ5       VNEOCPV00

Station data:
(V00) Kitt Peak-Bok  (N31.963125 W111.600190)  US/Arizona. Measurers T.
   Beuden, V. F. Carvajal, D. Fay, J. B. Fazekas, D. C. Fuls, A. R. Gibbs, A.
   D. Grauer, H. Gröller, J. K. Hogan, R. A. Kowalski, S. M. Larson, G. J.
   Leonard, D. Rankin, R. L. Seaman, F. C. Shelly, K. W. Wierzchoś. 2.25-m
   reflector + 4x4K mosaic CCD.

Orbital elements:  C1CC4M5
   Perihelion 2025 Jul 30.146986 +/- 311 TT =  3:31:39.5 (JD 2460886.646986)
Epoch 2026 Feb 24.0 TT = JDT 2461095.5   Earth MOID: 0.6093   Ma: 0.0714
M  74.811895922 +/- 90              (J2000 ecliptic)             AutoNEOCP
n   0.358203573 +/- 0.142           Peri.  103.440012 +/- 70
a   1.963583797 +/- 0.52            Node   309.684414 +/- 30
e   0.23365448 +/- 0.168            Incl.   16.280172 +/- 21
P   2.75153                H 21.07  G  0.15   U 11.5  SR
q 1.504783638 +/- 0.423    Q 2.422383956 +/- 1.04
From 7 observations 2026 Feb. 24 (2.6 hr); mean residual 0".36
Residuals in arcseconds: 
260224 V00  .09+  .25-    260224 V00  .56+  .24-    260224 V00  .55-  .08+    
260224 V00  .12-  .08+    260224 V00  .70+  .27+    
260224 V00  .01-  .20+    260224 V00  .68-  .13-    

Ephemerides (geocentric):
Date (UTC) HH   RA             Dec           delta  r     elong  mag " sig PA
---- --------  ------------   ------------  ------ ------ -----  --- --------
2026 03 17 19  09 34 20.507   -02 26 41.85  1.1058 2.0110 146.3 23.7  24d  88
2026 03 17 20  09 34 18.614   -02 26 39.17  1.1062 2.0111 146.3 23.7  24d  88
2026 03 17 21  09 34 16.725   -02 26 36.49  1.1065 2.0112 146.2 23.7  24d  88
2026 03 17 22  09 34 14.841   -02 26 33.80  1.1069 2.0113 146.2 23.7  24d  88
2026 03 17 23  09 34 12.961   -02 26 31.11  1.1072 2.0115 146.1 23.7  24d  88
2026 03 18 00  09 34 11.085   -02 26 28.42  1.1076 2.0116 146.1 23.7  24d  88
2026 03 18 01  09 34 09.213   -02 26 25.73  1.1079 2.0117 146.0 23.7  24d  88
2026 03 18 02  09 34 07.346   -02 26 23.03  1.1083 2.0118 146.0 23.7  24d  88
2026 03 18 03  09 34 05.483   -02 26 20.33  1.1086 2.0119 145.9 23.7  24d  88
2026 03 18 04  09 34 03.625   -02 26 17.62  1.1090 2.0120 145.9 23.7  24d  88
2026 03 18 05  09 34 01.771   -02 26 14.91  1.1093 2.0122 145.9 23.7  24d  88
2026 03 18 06  09 33 59.921   -02 26 12.20  1.1097 2.0123 145.8 23.7  24d  88
2026 03 18 07  09 33 58.076   -02 26 09.49  1.1100 2.0124 145.8 23.7  24d  88
2026 03 18 08  09 33 56.235   -02 26 06.77  1.1104 2.0125 145.7 23.7  24d  88
2026 03 18 09  09 33 54.398   -02 26 04.05  1.1108 2.0126 145.7 23.7  24d  88
2026 03 18 10  09 33 52.566   -02 26 01.33  1.1111 2.0127 145.6 23.7  24d  88
2026 03 18 11  09 33 50.738   -02 25 58.60  1.1115 2.0129 145.6 23.7  24d  88
2026 03 18 12  09 33 48.914   -02 25 55.88  1.1118 2.0130 145.6 23.7  24d  88
2026 03 18 13  09 33 47.095   -02 25 53.14  1.1122 2.0131 145.5 23.7  24d  88
2026 03 18 14  09 33 45.281   -02 25 50.41  1.1125 2.0132 145.5 23.7  24d  88
2026 03 18 15  09 33 43.470   -02 25 47.67  1.1129 2.0133 145.4 23.7  24d  88
2026 03 18 16  09 33 41.664   -02 25 44.93  1.1132 2.0134 145.4 23.7  24d  88
2026 03 18 17  09 33 39.862   -02 25 42.19  1.1136 2.0135 145.3 23.7  24d  88
2026 03 18 18  09 33 38.065   -02 25 39.44  1.1140 2.0137 145.3 23.7  24d  88
2026 03 18 19  09 33 36.272   -02 25 36.70  1.1143 2.0138 145.2 23.7  24d  88
2026 03 18 20  09 33 34.483   -02 25 33.95  1.1147 2.0139 145.2 23.7  24d  88
2026 03 18 21  09 33 32.699   -02 25 31.19  1.1150 2.0140 145.2 23.7  24d  88
2026 03 18 22  09 33 30.919   -02 25 28.44  1.1154 2.0141 145.1 23.7  24d  88
2026 03 18 23  09 33 29.144   -02 25 25.68  1.1158 2.0142 145.1 23.7  24d  88
2026 03 19 00  09 33 27.373   -02 25 22.92  1.1161 2.0144 145.0 23.7  24d  88
2026 03 19 01  09 33 25.606   -02 25 20.15  1.1165 2.0145 145.0 23.7  24d  88
2026 03 19 02  09 33 23.844   -02 25 17.39  1.1168 2.0146 144.9 23.7  24d  88
2026 03 19 03  09 33 22.086   -02 25 14.62  1.1172 2.0147 144.9 23.7  24d  88
2026 03 19 04  09 33 20.332   -02 25 11.85  1.1176 2.0148 144.9 23.7  24d  88
2026 03 19 05  09 33 18.583   -02 25 09.08  1.1179 2.0149 144.8 23.7  24d  88
2026 03 19 06  09 33 16.838   -02 25 06.30  1.1183 2.0151 144.8 23.7  24d  88
2026 03 19 07  09 33 15.097   -02 25 03.53  1.1186 2.0152 144.7 23.7  24d  88
2026 03 19 08  09 33 13.361   -02 25 00.75  1.1190 2.0153 144.7 23.7  24d  88
2026 03 19 09  09 33 11.630   -02 24 57.96  1.1194 2.0154 144.6 23.7  24d  88
2026 03 19 10  09 33 09.902   -02 24 55.18  1.1197 2.0155 144.6 23.7  24d  88
2026 03 19 11  09 33 08.179   -02 24 52.40  1.1201 2.0156 144.6 23.7  24d  88
2026 03 19 12  09 33 06.461   -02 24 49.61  1.1205 2.0157 144.5 23.7  24d  88
2026 03 19 13  09 33 04.747   -02 24 46.82  1.1208 2.0159 144.5 23.7  24d  88
2026 03 19 14  09 33 03.037   -02 24 44.03  1.1212 2.0160 144.4 23.7  24d  88
2026 03 19 15  09 33 01.331   -02 24 41.23  1.1216 2.0161 144.4 23.7  24d  88
2026 03 19 16  09 32 59.630   -02 24 38.44  1.1219 2.0162 144.3 23.7  24d  88
2026 03 19 17  09 32 57.934   -02 24 35.64  1.1223 2.0163 144.3 23.7  24d  88
2026 03 19 18  09 32 56.241   -02 24 32.84  1.1227 2.0164 144.2 23.7  24d  88